Location: Pitton
(51.0667°N, 1.7000°W)
Time: 03:30:18
(UTC+00:00)

Cosmos 1954 Rocket - Pass Details

Date: 17 September 2019
Orbit: 753 x 781 km, 74.0° (Epoch: 17 October)

Event Time Altitude Azimuth Distance (km) Brightness Sun altitude
Rises 20:48:49 0° 333° (NNW) 3,250 8.3 -23.0°
Reaches altitude 10° 20:51:14 10° 330° (NNW) 2,315 7.4 -23.3°
Maximum altitude 20:56:24 62° 251° (WSW) 855 4.3 -23.9°
Enters shadow 20:57:49 45° 193° (SSW) 1,038 4.4 -24.1°
